Regional Weather Roundup
Issued by NWS Grand Forks, ND

Current Version | Previous Version | Text Only | Print | Product List | Glossary On
Versions: 1 2 3 4 5 6 7 8 9 10 11 12 13 14 15 16 17 18 19 20 21 22 23 24 25 26 27 28 29 30 31 32 33 34 35 36 37 38 39 40 41 42 43 44 45 46 47 48 49 50
000
ASUS43 KFGF 080510
RWRFGF
PRAIRIE TO PINES  WEATHER ROUNDUP
NATIONAL WEATHER SERVICE EASTERN NORTH DAKOTA/GRAND FORKS ND
1100 PM CST SUN FEB 07 2016

 **SATELLITE DATA USED TO AUGMENT SKY COVER AT AUTOMATED STATIONS**
 *****  WEATHER ACROSS EASTERN NORTH DAKOTA  *****

CITY           SKY/WX    TMP DP  RH WIND       PRES   REMARKS
GRAND FORKS    LGT SNOW  14   9  80 N26G36    30.05R BLWGSNOWWCI  -6
GRAND FRKS AFB LGT SNOW  14  10  85 N16       30.05R WCI  -2
GRAND FRKS NWS   N/A     12 N/A N/A VRB28       N/A  WCI  -9
DEVILS LAKE    FLURRIES  19  13  77 N30G37    30.06S WCI   0
FARGO          LGT SNOW  15  11  83 N28G36    30.03R VSB 3/4 WCI  -5
WAHPETON ARPT  CLOUDY    14  10  85 N26G39    29.99S VSB 1   WCI  -6
$$

 ***** WEATHER ACROSS CENTRAL AND WESTERN NORTH DAKOTA  *****

CITY           SKY/WX    TMP DP  RH WIND       PRES   REMARKS
BISMARCK       CLEAR     30  17  58 NW29G41   30.16S WCI  15
MINOT          FLURRIES  28  16  60 NW28G38   30.16S WCI  13
JAMESTOWN      CLOUDY    22  15  75 N22G30    30.05R WCI   6
MINOT AFB      MOCLDY    27  19  73 NW26G38   30.16R WCI  11
GARRISON         N/A     26  18  71 NW35G41   30.17S WCI   9
WILLISTON      CLEAR     28  19  69 NW21G32   30.30S WCI  15
DICKINSON      CLEAR     26  14  60 NW21      30.23R WCI  12
HETTINGER      CLEAR     27  15  61 NW21G32   30.25R WCI  13
$$

 *****  OTHER AIRPORT OBSERVATIONS IN OUR AREA  *****

CITY           SKY/WX    TMP DP  RH WIND       PRES   REMARKS
WALHALLA       LGT SNOW  14  14 100 N23G30    30.09R WCI  -5
GRAFTON AIRPOR LGT SNOW  12  10  92 N25G36    30.08S WCI  -8
VALLEY CITY AR FLURRIES  19  12  73 N24G39    30.05R WCI   2
CANDO          NOT AVBL
CAVALIER APRT  LGT SNOW  14  10  85 N26G33    30.08R VSB 1   WCI  -6
GWINNER        MOCLDY    23  16  74 N31G38    30.03R WCI   5
ROLLA          FLURRIES  18  14  86 N26G39    30.08R WCI  -1
 ***** THE ABOVE OBSERVATIONS ARE NON NWS ARE NOT QUALITY
       CONTROLLED AND MAY MIS-REPORT RAIN FOR SNOW...
$$

  *****  WEATHER ACROSS NORTHERN MINNESOTA  *****

CITY           SKY/WX    TMP DP  RH WIND       PRES   REMARKS
FLAG ISLAND    CLOUDY     3   0  85 NW20      29.90R FOG     WCI -18
WARROAD        LGT SNOW   5   0  78 NW18G28   29.93R WCI -15
ROSEAU         LGT SNOW   7   0  72 NW23      29.95S WCI -14
HALLOCK        LGT SNOW  10   7  85 N24G33    30.04R WCI -10
THF RVR FALLS  NOT AVBL
BAUDETTE       LGT SNOW   5  -1  76 NW22G28   29.86R WCI -16
WASKISH        LGT SNOW   7   3  85 NW12      29.86R WCI  -9
CROOKSTON      HVY SNOW  10   9  92 N36G43    30.02R VSB 1/4 WCI -13
STEPHEN NDAWN    N/A      9   7  92 N23         N/A  WCI -12
GREENBUSH NDAW   N/A      7   3  85 N20         N/A  WCI -13
$$
  *****  WEATHER ACROSS CENTRAL AND WEST MINNESOTA  *****

CITY           SKY/WX    TMP DP  RH WIND       PRES   REMARKS
FOSSTON        LGT SNOW   5   1  85 NW20G25   29.94R WCI -15
BEMIDJI        LGT SNOW   6   1  80 NW20G29   29.85R WCI -14
PARK RAPIDS    LGT SNOW   9   2  73 NW23G31   29.83S WCI -11
ELBOW LAKE     LGT SNOW  11   7  83 NW35G44   29.92S WCI -12
WADENA         LGT SNOW   9   3  78 NW20G28   29.84S WCI -11
DETROIT LAKES  LGT SNOW  10   7  85 N31G40    29.92R WCI -12
MOORHEAD       MIX PCPN  12  10  92 N29G37    30.01R VSB 3/4 WCI  -9
FERGUS FALLS     N/A     10   9  92 N29G48    29.96F WCI -11
MORRIS MN      SNOW      12  10  92 NW41G49   29.91R VSB 1/2 WCI -12
STAPLES        LGT SNOW   9   3  78 NW18G30   29.82S WCI -10
$$
  *****  WEATHER ELSEWHERE ACROSS MINNESOTA  *****

CITY           SKY/WX    TMP DP  RH WIND       PRES   REMARKS
DULUTH         LGT SNOW  18  13  80 NW18G29   29.62R BLWGSNOWWCI   2
INTRNTL FALLS  LGT SNOW   9   4  80 NW15G23   29.78R WCI  -8
ELY            CLOUDY    19  18  93 N7        29.65R FOG     WCI  10
CLOQUET        LGT SNOW  18  12  79 NW17G24   29.66R WCI   2
WHEATON        LGT SNOW  18  12  79 NW25G31   30.00R WCI  -1
BRAINERD       MIX PCPN  12   5  73 NW22G30   29.79R WCI  -7
HIBBING        LGT SNOW  10   7  87 NW20G30   29.69R FOG     WCI  -9
ALEXANDRIA     LGT SNOW  11   4  73 NW20G30   29.85S WCI  -7
SAINT CLOUD    CLOUDY    14   6  70 NW17G29   29.79R WCI  -3
MINNEAPOLIS    FLURRIES  17   8  67 NW22G29   29.77S WCI   0
$$

  *****  WEATHER ACROSS SOUTH DAKOTA  *****

CITY           SKY/WX    TMP DP  RH WIND       PRES   REMARKS
SIOUX FALLS    CLOUDY    24  18  77 NW28G44   29.96S BLWGSNOWWCI   7
BROOKINGS      FLURRIES  20  15  81 N24G32    29.93R WCI   3
WATERTOWN      LGT SNOW  20  13  74 N25G37    29.94S WCI   2
HURON          CLEAR     27  18  69 NW26G37   30.04R WCI  12
SISSETON         N/A     18  15  88 N28G35    29.98R WCI  -1
ABERDEEN       CLOUDY    28  19  69 N18G26    30.06R WCI  15
MITCHELL       CLOUDY    31  22  69 NW26G37   30.06R WCI  17
PIERRE         CLOUDY    34  17  50 NW30G39   30.15R WCI  20
MOBRIDGE       MOCLDY    32  19  58 N21G32    30.11R WCI  20
RAPID CITY     CLEAR     32   9  38 NW32G45   30.28R WCI  17
$$

  *****  SOME WEATHER IN NEARBY STATES *****

CITY           SKY/WX    TMP DP  RH WIND       PRES   REMARKS
GLASGOW MT     CLEAR     24  15  68 S3        30.40R
GREAT FALLS MT CLOUDY    31  16  54 SW10      30.42R WCI  22
CHEYENNE WY    CLOUDY    20  11  68 N7        30.34R WCI  11
SCOTTSBLUFF NE CLEAR     26  13  57 NW13      30.37S WCI  15
OMAHA NE       LGT SNOW  31  27  85 NW28G33   29.99S FOG     WCI  17
DES MOINES IA  FLURRIES  31  22  69 NW23G31   29.86R WCI  18
DAVENPORT IA   CLOUDY    34  29  82 W13       29.73F WCI  25
CHICAGO IL     PTCLDY    33  27  78 W8        29.70F
EAU CLAIRE WI  LGT SNOW  23  19  85 W9        29.66R FOG     WCI  13
LA CROSSE WI   CLOUDY    30  21  69 NW23G31   29.67R WCI  17
$$

  *****  SOME NATIONAL WEATHER *****

CITY           SKY/WX    TMP DP  RH WIND       PRES   REMARKS
LA GUARDIA NY  CLOUDY    40  28  62 NE21      29.91F
RALEIGH NC     CLOUDY    39  21  48 VRB3      29.83F
ATLANTA GA     PTCLDY    40  22  48 W6        29.97S
NEW ORLEANS LA CLEAR     46  30  53 W6        30.17F
OKLAHOMA CITY  MOCLDY    44  17  33 NW20      30.28R
ALBUQUERQUE NM CLOUDY    43  19  38 N7        30.39R
SALT LAKE CITY PTCLDY    29  25  85 CALM      30.66S FOG
LOS ANGELES CA CLEAR     65  29  25 CALM      30.11R
BOISE ID       CLEAR     35  32  88 CALM      30.64R
SEATTLE WA     PTCLDY    44  38  79 N7        30.51F
$$

*** WEATHER ACROSS MANITOBA...SASKATCHEWAN AND ONTARIO ***
                ***ONTARIO***

CITY           SKY/WX    TMP DP  RH WIND       PRES   REMARKS
GERALDTON      FLURRIES   0  -4  85 NE10      29.74F WCI -17
THUNDER BAY    FLURRIES  10   7  85 N8        29.68S WCI  -1
SIOUX LOOKOUT  FLURRIES   5   1  85 CALM      29.78R
TORONTO        CLOUDY    37  32  81 NE7       29.80F
BIG TROUT LK   CLEAR    -13 -18  77 E7        30.06F WCI -29
PICKLE LAKE    NOT AVBL
DRYDEN         FLURRIES   9   5  85 N7        29.77R WCI  -3
KENORA         LGT SNOW   3   0  85 NW15G22   29.84R DRFTSNOWWCI -15
$$
                *** MANITOBA***

CITY           SKY/WX    TMP DP  RH WIND       PRES   REMARKS
BRANDON        FLURRIES  19  12  73 N17G25    30.13S WCI   4
DAUPHIN        FLURRIES  18  12  79 N9        30.16S WCI   6
ISLAND LAKE    LGT SNOW  -2  -6  84 NW6       30.04R WCI -14
PILOT MOUND      N/A     14  10  85 N20         N/A  WCI  -3
THE PAS        FLURRIES  10   3  72 NW13      30.20R WCI  -5
THOMPSON       FLURRIES  -2  -8  78 N7        30.14R WCI -16
WINNIPEG       LGT SNOW   9   3  78 N16G23    30.08R BLWGSNOWWCI  -9
LYNN LAKE      FLURRIES   1  -4  78 NW12G17   30.16R WCI -15
CHURCHILL      FLURRIES  -8 -13  77 W3        30.19F
GILLAM         LGT SNOW  -8 -13  77 N8        30.14R WCI -23
$$
                ***SASKATCHEWAN***

CITY           SKY/WX    TMP DP  RH WIND       PRES   REMARKS
ESTEVAN        NOT AVBL
KINDERSLEY     PTCLDY    21  16  79 W9        30.36F WCI  11
LLOYDMINSTER   PTCLDY    21  14  73 W13       30.32F WCI   9
PRINCE ALBERT  CLEAR     18  12  79 NW7       30.30R WCI   8
REGINA         CLEAR     21  18  86 NW12      30.29R WCI   9
YORKTON        CLEAR     19  14  79 NW21G26   30.18S WCI   3
N. BATTLEFORD  CLEAR     25  18  74 NW12      30.34S WCI  14
LA RONGE       CLEAR      9   3  78 W6        30.29R WCI  -1
SASKATOON      CLEAR     18  14  86 NW6       30.34R WCI   9
SWIFT CURRENT  CLEAR     23  16  74 W10       30.35S WCI  12
$$
NOTE: THESE ARE AUTOMATED STATIONS WITH LIMITED QUALITY CONTROL
      "FAIR" INDICATES FEW OR NO CLOUDS BELOW 12,000 FEET WITH NO
      SIGNIFICANT WEATHER AND/OR OBSTRUCTIONS TO VISIBILITY.
      SKY/WX - SKY CONDITION AND SIGNIFICANT WEATHER.
      TMP - AIR TEMPERATURE.    DP   - DEWPOINT TEMPERATURE.
      RH  - RELATIVE HUMIDITY.  PRES - PRESSURE.
      HX  - HEAT INDEX.         WCI  - WIND CHILL INDEX.
$



USA.gov is the U.S. government's official web portal to all federal, state and local government web resources and services.